Samos, Greece

4:17 PM EET on February 12, 2016 (GMT +0200)
Samos

Weather History for LGSM - March, 2013

Change the Weather History Date:

Wednesday, March 27, 2013

  Actual Average Record
Temperature  
Mean Temperature 60 °F -  
Max Temperature 66 °F 67 °F 77 °F (2001)
Min Temperature 52 °F 50 °F 42 °F (1997)
Degree Days  
Heating Degree Days 6    
Growing Degree Days 10 (Base 50)    
Moisture  
Dew Point 50 °F    
Average Humidity 64    
Maximum Humidity 88    
Minimum Humidity 45    
Precipitation  
Precipitation 0.00 in 0.05 in - ()
Sea Level Pressure  
Sea Level Pressure 29.79 in    
Wind  
Wind Speed 7 mph ()    
Max Wind Speed 15 mph    
Max Gust Speed -    
Visibility 6.2 miles    
Events      
Averages and records for this station are not official NWS values.
T = Trace of Precipitation, MM = Missing Value Source: Averaged Metar Reports

Daily Weather History Graph

Daily Weather History Graph

Search for Another Location

Airport or City:

Trip Planner

Search our weather history database for the weather conditions in past years. The results will help you decide how hot, cold, wet, or windy it might be!

Date:

Astronomy

Mar. 27, 2013 Rise Set
Actual Time 6:05 AM EET 6:30 PM EET
Civil Twilight 5:39 AM EET 6:56 PM EET
Nautical Twilight 5:08 AM EET 7:27 PM EET
Astronomical Twilight 4:36 AM EET 7:59 PM EET
Moon 6:51 PM EET (3/27) 5:45 AM EET (3/27)
Length of Visible Light 13h 17m
Length of Day
12h 25m
Full, 100% of the Moon is Illuminated
Mar 27
Full
Apr 3
Last Quarter
Apr 10
New
Apr 18
First Quarter
Apr 25
Full

Hourly Weather History & Observations

Time (EET) Temp. Dew Point Humidity Pressure Visibility Wind Dir Wind Speed Gust Speed Precip Events Conditions
5:20 AM 53.6 °F 48.2 °F 82% 29.71 in 6.2 mi West 4.6 mph - N/A   Scattered Clouds
5:50 AM 53.6 °F 50.0 °F 88% 29.71 in 6.2 mi Variable 3.5 mph - N/A   Partly Cloudy
6:20 AM 53.6 °F 48.2 °F 82% 29.71 in 6.2 mi Calm Calm - N/A   Partly Cloudy
6:50 AM 55.4 °F 48.2 °F 77% 29.71 in 6.2 mi West 5.8 mph - N/A   Partly Cloudy
7:20 AM 55.4 °F 46.4 °F 72% 29.74 in 6.2 mi Variable 3.5 mph - N/A   Partly Cloudy
7:50 AM 59.0 °F 48.2 °F 67% 29.74 in 6.2 mi Variable 2.3 mph - N/A   Partly Cloudy
8:00 AM 59 °F 48 °F 57% 29.75 in 6 mi 2.3 mph - -   Scattered Clouds
8:20 AM 60.8 °F 48.2 °F 63% 29.74 in 6.2 mi Variable 3.5 mph - N/A   Partly Cloudy
8:50 AM 60.8 °F 46.4 °F 59% 29.77 in 6.2 mi SSW 10.4 mph - N/A   Scattered Clouds
9:20 AM 62.6 °F 51.8 °F 68% 29.77 in 6.2 mi SSW 9.2 mph - N/A   Scattered Clouds
9:50 AM 64.4 °F 51.8 °F 64% 29.77 in 6.2 mi South 11.5 mph - N/A   Scattered Clouds
10:20 AM 64.4 °F 51.8 °F 64% 29.80 in 6.2 mi South 11.5 mph - N/A   Scattered Clouds
10:50 AM 66.2 °F 51.8 °F 60% 29.80 in 6.2 mi SSW 13.8 mph - N/A   Scattered Clouds
11:20 AM 66.2 °F 50.0 °F 56% 29.80 in 6.2 mi South 12.7 mph - N/A   Scattered Clouds
11:50 AM 66.2 °F 50.0 °F 56% 29.80 in 6.2 mi South 13.8 mph - N/A   Scattered Clouds
12:20 PM 66.2 °F 51.8 °F 60% 29.80 in 6.2 mi SSW 13.8 mph - N/A   Mostly Cloudy
12:50 PM 66.2 °F 50.0 °F 56% 29.80 in 6.2 mi SSW 12.7 mph - N/A   Mostly Cloudy
1:20 PM 66.2 °F 50.0 °F 56% 29.80 in 6.2 mi SSW 15.0 mph - N/A   Mostly Cloudy
1:50 PM 66.2 °F 50.0 °F 56% 29.80 in 6.2 mi South 12.7 mph - N/A   Mostly Cloudy
2:00 PM 67 °F 51 °F 45% 29.82 in 6 mi South 12.7 mph - -   Scattered Clouds
2:20 PM 66.2 °F 50.0 °F 56% 29.80 in 6.2 mi South 12.7 mph - N/A   Mostly Cloudy
2:50 PM 64.4 °F 50.0 °F 59% 29.80 in 6.2 mi South 9.2 mph - N/A   Mostly Cloudy
3:20 PM 64.4 °F 50.0 °F 59% 29.80 in 6.2 mi South 9.2 mph - N/A   Mostly Cloudy
3:50 PM 64.4 °F 51.8 °F 64% 29.80 in 6.2 mi South 9.2 mph - N/A   Mostly Cloudy
4:20 PM 62.6 °F 51.8 °F 68% 29.80 in 6.2 mi South 9.2 mph - N/A   Mostly Cloudy
4:50 PM 60.8 °F 50.0 °F 68% 29.83 in 6.2 mi South 9.2 mph - N/A   Mostly Cloudy
5:20 PM 60.8 °F 50.0 °F 68% 29.83 in 6.2 mi South 9.2 mph - N/A   Mostly Cloudy
5:50 PM 60.8 °F 50.0 °F 68% 29.83 in 6.2 mi South 9.2 mph - N/A   Mostly Cloudy
6:20 PM 60.8 °F 50.0 °F 68% 29.83 in 6.2 mi South 9.2 mph - N/A   Mostly Cloudy
6:50 PM 59.0 °F 48.2 °F 67% 29.86 in 6.2 mi SSW 8.1 mph - N/A   Mostly Cloudy
7:20 PM 59.0 °F 48.2 °F 67% 29.86 in 6.2 mi SSW 8.1 mph - N/A   Mostly Cloudy
7:50 PM 59.0 °F 48.2 °F 67% 29.86 in 6.2 mi Calm Calm - N/A   Mostly Cloudy
8:00 PM 59 °F 49 °F 59% 29.88 in 6 mi Calm Calm - -   Partly Cloudy